Weather in Ko Samet

Thailand     13°18′55″N   100°57′23″E
temp.,
°C
wind,
m/s
gust,
m/s
humid.,
%
clouds,
%
prec.,
mm/h
press.,
hPa
HPBL,
m
17 april, sat
sat1701:00+27s468398 0.8 1010287
04:00+26s3485100 2.2 1009211
07:00+27sse348384 2.6 1011238
10:00+31ssw4457100 0.0 10121135
13:00+32sw656071 0.0 10101286
16:00+32sw56575 0.0 1008965
19:00+28ssw69735 0.8 1010359
22:00+27sse33790 0.0 1012187
18 april, sun
sun1801:00+26sse238167 0.1 1011128
04:00+25se228568 2.1 101061
07:00+26sse238417 2.6 1011144
10:00+31sw436342 0.3 10121257
13:00+31wsw43590 0.5 10101081
16:00+31ssw445735 0.0 1007754
19:00+29ssw34655 0.0 1008151
22:00+27s33755 1.1 1010175
19 april, mon
mon1901:00+26sse228315 2.6 100980
04:00+25ssw3487100 7.8 1008220
07:00+26sw2484100 14.6 1010181
10:00+30w3365100 0.4 1011968
13:00+31wsw3457100 0.4 10081025
16:00+31s3349100 0.0 1006604
19:00+28s477041 0.0 1007313
22:00+27s347613 0.0 1008188
20 april, tue
tue2001:00+27ssw337014 0.0 1007139
04:00+26s227434 0.0 1007142
07:00+27s227630 0.0 1009194
10:00+31ssw215576 0.0 10101054
13:00+33wsw334963 0.0 10071545
16:00+31sw545961 0.0 1006750
19:00+29sse45665 0.0 1007187
22:00+27sse477457 0.0 1009271
21 april, wed
wed2101:00+27sse367912 0.0 1008285
04:00+27s33745 0.3 1008146
07:00+27sse34745 0.3 1009188
10:00+31ssw335191 0.0 10111030
13:00+32sw4352100 0.0 10081085
16:00+32ssw445299 0.0 1006916
19:00+29sse45535 0.0 1007133
22:00+27s466213 0.0 1010189